TAM8130 SBGR-SAEZ

Flight info

Callsign TAM8130
Flight time N/A
Altitude 34000
Route UBSOD UZ38 UMRUD UN741 PAPIX
Aircraft A321/M-SDE3FGHIRWY/LB1

Departure

Time 2026-05-01 13:40
Airport São Paulo/Guarulhos–Governor André Franco Montoro International Airport (SBGR)

Arrival

Time N/A
Airport Ezeiza International Airport - Ministro Pistarini (SAEZ)
Time Latitude Longitude Altitude Speed Heading
2026-05-01 13:02 -23.42738 -46.47649 2465 ft 0 kts 253°
2026-05-01 13:29 -23.42736 -46.47644 2471 ft 3 kts 253°
2026-05-01 13:30 -23.42676 -46.47581 2465 ft 4 kts 165°
2026-05-01 13:31 -23.42667 -46.47583 2466 ft 0 kts 164°
2026-05-01 13:33 -23.42668 -46.47583 2466 ft 0 kts 164°
2026-05-01 13:33 -23.42696 -46.47574 2465 ft 5 kts 164°
2026-05-01 13:34 -23.42788 -46.47541 2467 ft 7 kts 137°
2026-05-01 13:34 -23.42892 -46.47482 2467 ft 10 kts 160°
2026-05-01 13:35 -23.42964 -46.47574 2464 ft 12 kts 254°
2026-05-01 13:35 -23.42991 -46.47675 2464 ft 15 kts 253°
2026-05-01 13:35 -23.43045 -46.47871 2468 ft 15 kts 253°
2026-05-01 13:36 -23.43074 -46.47980 2469 ft 15 kts 253°
2026-05-01 13:36 -23.43104 -46.48090 2467 ft 15 kts 253°
2026-05-01 13:36 -23.43163 -46.48310 2467 ft 15 kts 253°
2026-05-01 13:37 -23.43194 -46.48385 2468 ft 9 kts 210°
2026-05-01 13:37 -23.43252 -46.48380 2468 ft 9 kts 163°
2026-05-01 13:37 -23.43286 -46.48369 2471 ft 0 kts 163°
2026-05-01 13:37 -23.43287 -46.48369 2471 ft 1 kts 163°
2026-05-01 13:38 -23.43358 -46.48346 2466 ft 12 kts 163°
2026-05-01 13:38 -23.43417 -46.48317 2464 ft 9 kts 121°
2026-05-01 13:38 -23.43405 -46.48247 2462 ft 10 kts 73°
2026-05-01 13:39 -23.43367 -46.48108 2468 ft 44 kts 73°
2026-05-01 13:39 -23.43216 -46.47548 2460 ft 109 kts 73°
2026-05-01 13:39 -23.42950 -46.46563 2472 ft 160 kts 73°
2026-05-01 13:39 -23.42606 -46.45300 2840 ft 174 kts 73°
2026-05-01 13:40 -23.42273 -46.44063 3591 ft 168 kts 73°
2026-05-01 13:40 -23.41920 -46.42773 3807 ft 191 kts 72°
2026-05-01 13:40 -23.41485 -46.41328 3983 ft 209 kts 71°
2026-05-01 13:40 -23.41010 -46.39757 4192 ft 229 kts 71°
2026-05-01 13:41 -23.40490 -46.38016 4325 ft 254 kts 71°
2026-05-01 13:41 -23.40158 -46.36106 4860 ft 263 kts 91°
2026-05-01 13:41 -23.40611 -46.34135 5371 ft 274 kts 107°
2026-05-01 13:41 -23.41251 -46.32170 5971 ft 279 kts 108°
2026-05-01 13:42 -23.41914 -46.30162 6588 ft 283 kts 108°
2026-05-01 13:42 -23.42587 -46.28129 7165 ft 287 kts 109°
2026-05-01 13:42 -23.43535 -46.26206 7680 ft 293 kts 134°
2026-05-01 13:42 -23.45251 -46.25035 8194 ft 296 kts 166°
2026-05-01 13:43 -23.47301 -46.24938 8708 ft 298 kts 188°
2026-05-01 13:43 -23.49316 -46.25287 9339 ft 297 kts 192°
2026-05-01 13:43 -23.50183 -46.25478 9615 ft 298 kts 194°
2026-05-01 13:43 -23.52200 -46.26003 10196 ft 299 kts 201°
2026-05-01 13:44 -23.54019 -46.27061 10719 ft 298 kts 219°
2026-05-01 13:44 -23.55503 -46.28655 11055 ft 306 kts 235°
2026-05-01 13:44 -23.56518 -46.30741 11179 ft 320 kts 253°
2026-05-01 13:44 -23.57040 -46.33148 11307 ft 335 kts 259°
2026-05-01 13:45 -23.57538 -46.35684 11418 ft 350 kts 258°
2026-05-01 13:45 -23.57715 -46.36579 11473 ft 354 kts 258°
2026-05-01 13:45 -23.57962 -46.37839 11580 ft 359 kts 258°
2026-05-01 13:45 -23.58490 -46.40523 11892 ft 365 kts 258°
2026-05-01 13:46 -23.58684 -46.41504 12045 ft 367 kts 258°
2026-05-01 13:46 -23.59056 -46.43381 12372 ft 368 kts 258°
2026-05-01 13:46 -23.59598 -46.46114 12815 ft 370 kts 258°
2026-05-01 13:46 -23.59966 -46.47966 13158 ft 370 kts 258°
2026-05-01 13:47 -23.60691 -46.51614 13719 ft 374 kts 258°
2026-05-01 13:47 -23.61198 -46.54412 14106 ft 377 kts 260°
2026-05-01 13:47 -23.61632 -46.57236 14488 ft 379 kts 261°
2026-05-01 13:47 -23.62031 -46.60082 14856 ft 380 kts 262°
2026-05-01 13:48 -23.62430 -46.62935 15228 ft 382 kts 259°
2026-05-01 13:48 -23.62855 -46.64805 15465 ft 383 kts 252°
2026-05-01 13:48 -23.63935 -46.67510 15842 ft 386 kts 241°
2026-05-01 13:48 -23.65357 -46.69981 16215 ft 388 kts 238°
2026-05-01 13:49 -23.66818 -46.72482 16586 ft 390 kts 239°
2026-05-01 13:49 -23.68286 -46.74995 16949 ft 392 kts 239°
2026-05-01 13:49 -23.69823 -46.77466 17287 ft 395 kts 232°
2026-05-01 13:49 -23.71709 -46.79607 17611 ft 399 kts 222°
2026-05-01 13:50 -23.74018 -46.81385 17954 ft 403 kts 212°
2026-05-01 13:50 -23.76417 -46.82898 18277 ft 405 kts 212°
2026-05-01 13:50 -23.78869 -46.84443 18599 ft 407 kts 212°
2026-05-01 13:50 -23.81352 -46.86007 18881 ft 409 kts 212°
2026-05-01 13:51 -23.83831 -46.87567 19145 ft 411 kts 212°
2026-05-01 13:51 -23.85770 -46.88787 19366 ft 413 kts 212°
2026-05-01 13:51 -23.87505 -46.89883 19568 ft 414 kts 212°
2026-05-01 13:51 -23.89997 -46.91463 19855 ft 415 kts 212°
2026-05-01 13:52 -23.91670 -46.92522 20032 ft 417 kts 212°
2026-05-01 13:52 -23.92665 -46.93153 20153 ft 417 kts 212°
2026-05-01 13:52 -23.95185 -46.94747 20440 ft 419 kts 212°
2026-05-01 13:52 -23.97708 -46.96346 20719 ft 421 kts 212°
2026-05-01 13:53 -24.00245 -46.97954 21012 ft 422 kts 212°
2026-05-01 13:53 -24.05354 -47.01195 21576 ft 426 kts 212°
2026-05-01 13:53 -24.07919 -47.02823 21840 ft 428 kts 212°
2026-05-01 13:54 -24.10503 -47.04462 22106 ft 430 kts 212°
2026-05-01 13:54 -24.13096 -47.06106 22375 ft 431 kts 212°
2026-05-01 13:54 -24.15692 -47.07752 22626 ft 433 kts 212°
2026-05-01 13:54 -24.18305 -47.09409 22894 ft 435 kts 212°
2026-05-01 13:55 -24.20913 -47.11073 23275 ft 434 kts 213°
2026-05-01 13:55 -24.23538 -47.12750 23452 ft 438 kts 213°
2026-05-01 13:55 -24.26178 -47.14431 23698 ft 440 kts 213°
2026-05-01 13:55 -24.28814 -47.16159 23911 ft 441 kts 214°
2026-05-01 13:56 -24.31422 -47.17944 24135 ft 442 kts 215°
2026-05-01 13:56 -24.34017 -47.19770 24347 ft 443 kts 216°
2026-05-01 13:56 -24.36609 -47.21609 24579 ft 445 kts 216°
2026-05-01 13:56 -24.39176 -47.23428 24815 ft 446 kts 216°
2026-05-01 13:57 -24.41790 -47.25265 25046 ft 447 kts 216°
2026-05-01 13:57 -24.44416 -47.27101 25286 ft 448 kts 216°
2026-05-01 13:57 -24.47048 -47.28934 25528 ft 448 kts 216°
2026-05-01 13:57 -24.49684 -47.30764 25770 ft 449 kts 216°
2026-05-01 13:58 -24.52333 -47.32602 26027 ft 450 kts 216°
2026-05-01 13:58 -24.54978 -47.34442 26273 ft 450 kts 216°
2026-05-01 13:58 -24.57627 -47.36287 26513 ft 451 kts 216°
2026-05-01 13:58 -24.60281 -47.38139 26740 ft 452 kts 216°
2026-05-01 13:59 -24.62937 -47.39990 26977 ft 453 kts 216°
2026-05-01 13:59 -24.65596 -47.41847 27201 ft 454 kts 216°
2026-05-01 13:59 -24.68264 -47.43707 27424 ft 454 kts 216°
2026-05-01 13:59 -24.70938 -47.45573 27625 ft 455 kts 217°
2026-05-01 14:00 -24.73613 -47.47440 27837 ft 456 kts 217°
2026-05-01 14:00 -24.76294 -47.49316 28031 ft 457 kts 217°
2026-05-01 14:00 -24.78978 -47.51200 28221 ft 457 kts 217°
2026-05-01 14:00 -24.81664 -47.53089 28408 ft 458 kts 217°
2026-05-01 14:01 -24.84348 -47.54977 28591 ft 458 kts 217°
2026-05-01 14:01 -24.87037 -47.56868 28756 ft 459 kts 217°
2026-05-01 14:01 -24.89734 -47.58762 28946 ft 459 kts 217°
2026-05-01 14:01 -24.92427 -47.60650 29178 ft 458 kts 217°
2026-05-01 14:02 -24.95100 -47.62526 29400 ft 457 kts 217°
2026-05-01 14:02 -24.97787 -47.64413 29630 ft 456 kts 217°
2026-05-01 14:02 -25.00461 -47.66292 29857 ft 455 kts 217°
2026-05-01 14:02 -25.03127 -47.68165 30090 ft 454 kts 218°
2026-05-01 14:03 -25.05784 -47.70032 30311 ft 453 kts 218°
2026-05-01 14:03 -25.08432 -47.71900 30507 ft 452 kts 218°
2026-05-01 14:03 -25.11077 -47.73768 30697 ft 451 kts 218°
2026-05-01 14:03 -25.13716 -47.75630 30912 ft 449 kts 218°
2026-05-01 14:04 -25.16347 -47.77483 31122 ft 448 kts 218°
2026-05-01 14:04 -25.18971 -47.79333 31318 ft 447 kts 218°
2026-05-01 14:04 -25.21587 -47.81178 31516 ft 446 kts 218°
2026-05-01 14:04 -25.24200 -47.83024 31700 ft 445 kts 219°
2026-05-01 14:05 -25.26804 -47.84868 31884 ft 445 kts 219°
2026-05-01 14:05 -25.29405 -47.86713 32079 ft 444 kts 219°
2026-05-01 14:05 -25.32005 -47.88555 32275 ft 443 kts 219°
2026-05-01 14:05 -25.34601 -47.90393 32468 ft 442 kts 219°
2026-05-01 14:06 -25.37186 -47.92223 32660 ft 442 kts 219°
2026-05-01 14:06 -25.39765 -47.94052 32847 ft 441 kts 219°
2026-05-01 14:06 -25.42322 -47.95865 33046 ft 440 kts 219°
2026-05-01 14:06 -25.44897 -47.97695 33245 ft 439 kts 219°
2026-05-01 14:07 -25.47467 -47.99520 33449 ft 438 kts 219°
2026-05-01 14:07 -25.50029 -48.01337 33645 ft 437 kts 219°
2026-05-01 14:07 -25.52586 -48.03154 33833 ft 436 kts 219°
2026-05-01 14:08 -25.57683 -48.06781 34164 ft 435 kts 219°
2026-05-01 14:08 -25.62765 -48.10398 34190 ft 433 kts 219°
2026-05-01 14:09 -25.67836 -48.14009 34192 ft 433 kts 219°
2026-05-01 14:09 -25.72908 -48.17620 34191 ft 433 kts 219°
2026-05-01 14:10 -25.77965 -48.21223 34189 ft 431 kts 220°
2026-05-01 14:10 -25.82978 -48.24799 34202 ft 431 kts 220°
2026-05-01 14:11 -25.88019 -48.28399 34204 ft 431 kts 220°
2026-05-01 14:11 -25.95589 -48.33804 34207 ft 431 kts 220°
2026-05-01 14:12 -26.00634 -48.37415 34212 ft 431 kts 220°
2026-05-01 14:12 -26.05695 -48.41043 34223 ft 431 kts 220°
2026-05-01 14:13 -26.09887 -48.44048 34225 ft 431 kts 220°
2026-05-01 14:13 -26.15742 -48.48249 34221 ft 430 kts 220°
2026-05-01 14:14 -26.20775 -48.51865 34217 ft 430 kts 220°
2026-05-01 14:14 -26.25799 -48.55485 34214 ft 430 kts 220°
2026-05-01 14:15 -26.30817 -48.59103 34211 ft 430 kts 220°
2026-05-01 14:15 -26.35838 -48.62724 34229 ft 429 kts 221°
2026-05-01 14:16 -26.40851 -48.66341 34232 ft 428 kts 221°
2026-05-01 14:16 -26.45814 -48.69936 34229 ft 428 kts 221°
2026-05-01 14:17 -26.50789 -48.73564 34219 ft 427 kts 221°
2026-05-01 14:17 -26.55734 -48.77223 34227 ft 426 kts 221°
2026-05-01 14:18 -26.60680 -48.80880 34222 ft 426 kts 221°
2026-05-01 14:18 -26.64829 -48.83941 34223 ft 426 kts 221°
2026-05-01 14:19 -26.70585 -48.88178 34227 ft 426 kts 221°
2026-05-01 14:19 -26.75542 -48.91792 34228 ft 425 kts 221°
2026-05-01 14:20 -26.82980 -48.97209 34218 ft 424 kts 221°
2026-05-01 14:21 -26.87922 -49.00833 34212 ft 424 kts 221°
2026-05-01 14:21 -26.92858 -49.04461 34226 ft 424 kts 221°
2026-05-01 14:22 -27.00230 -49.09869 34237 ft 424 kts 221°
2026-05-01 14:22 -27.05167 -49.13499 34229 ft 424 kts 221°
2026-05-01 14:23 -27.10100 -49.17130 34221 ft 424 kts 221°
2026-05-01 14:23 -27.15026 -49.20754 34241 ft 424 kts 221°
2026-05-01 14:24 -27.19950 -49.24385 34227 ft 424 kts 221°
2026-05-01 14:24 -27.24877 -49.28019 34224 ft 424 kts 221°
2026-05-01 14:25 -27.29802 -49.31653 34229 ft 422 kts 222°
2026-05-01 14:25 -27.34698 -49.35280 34225 ft 421 kts 222°
2026-05-01 14:26 -27.42041 -49.40721 34228 ft 422 kts 222°
2026-05-01 14:27 -27.46950 -49.44363 34238 ft 423 kts 222°
2026-05-01 14:27 -27.51866 -49.48005 34237 ft 423 kts 222°
2026-05-01 14:28 -27.59210 -49.53453 34261 ft 423 kts 222°
2026-05-01 14:28 -27.64128 -49.57101 34251 ft 424 kts 222°
2026-05-01 14:29 -27.69051 -49.60760 34243 ft 424 kts 222°
2026-05-01 14:30 -27.78957 -49.68039 34237 ft 426 kts 221°
2026-05-01 14:31 -27.86500 -49.73360 34241 ft 426 kts 221°
2026-05-01 14:31 -27.91518 -49.76928 34233 ft 425 kts 221°
2026-05-01 14:32 -27.96510 -49.80503 34211 ft 425 kts 221°
2026-05-01 14:32 -28.01512 -49.84094 34206 ft 426 kts 221°
2026-05-01 14:33 -28.05683 -49.87086 34208 ft 427 kts 221°
2026-05-01 14:33 -28.11522 -49.91265 34221 ft 427 kts 221°
2026-05-01 14:34 -28.16547 -49.94870 34215 ft 427 kts 221°
2026-05-01 14:34 -28.20723 -49.97875 34225 ft 427 kts 221°
2026-05-01 14:35 -28.25728 -50.01482 34203 ft 427 kts 221°
2026-05-01 14:35 -28.30760 -50.05113 34200 ft 428 kts 222°
2026-05-01 14:36 -28.35779 -50.08734 34198 ft 428 kts 221°
2026-05-01 14:36 -28.40813 -50.12359 34195 ft 428 kts 221°
2026-05-01 14:37 -28.45839 -50.15989 34192 ft 428 kts 222°
2026-05-01 14:37 -28.50863 -50.19627 34219 ft 428 kts 222°
2026-05-01 14:38 -28.55885 -50.23269 34198 ft 428 kts 222°
2026-05-01 14:38 -28.60900 -50.26911 34185 ft 428 kts 222°
2026-05-01 14:39 -28.65918 -50.30560 34189 ft 428 kts 222°
2026-05-01 14:39 -28.70931 -50.34206 34178 ft 428 kts 222°
2026-05-01 14:40 -28.75811 -50.37947 34174 ft 423 kts 225°
2026-05-01 14:40 -28.80498 -50.41995 34199 ft 421 kts 227°
2026-05-01 14:41 -28.85122 -50.46074 34184 ft 420 kts 227°
2026-05-01 14:41 -28.89779 -50.50102 34177 ft 420 kts 226°
2026-05-01 14:42 -28.94475 -50.54104 34171 ft 421 kts 226°
2026-05-01 14:42 -28.99174 -50.58106 34169 ft 421 kts 226°
2026-05-01 14:43 -29.03867 -50.62123 34163 ft 421 kts 226°
2026-05-01 14:43 -29.08556 -50.66149 34174 ft 421 kts 227°
2026-05-01 14:44 -29.13026 -50.70367 34176 ft 410 kts 236°
2026-05-01 14:44 -29.18376 -50.77817 34143 ft 404 kts 240°
2026-05-01 14:45 -29.23697 -50.85305 34144 ft 404 kts 240°
2026-05-01 14:46 -29.27222 -50.90283 34160 ft 404 kts 240°
2026-05-01 14:46 -29.32540 -50.97799 34146 ft 404 kts 240°
2026-05-01 14:47 -29.36083 -51.02811 34149 ft 404 kts 240°
2026-05-01 14:48 -29.41389 -51.10340 34139 ft 404 kts 240°
2026-05-01 14:48 -29.46665 -51.17841 34134 ft 404 kts 240°
2026-05-01 14:49 -29.53722 -51.27889 34089 ft 403 kts 240°